When you browse on this site, cookies collect data to enhance your experience and personalize the content and advertising you see.
Visit our Privacy Policy to learn more. By continuing to use the site, you agree to this use of cookies and data.
  • în România
  • Lista ţărilor
  • Pe 7 zile
  • Temperatura apei
  • Hartă satelitară
  • Meteo pe hartă
  • Widget-uri
  • user-avatar
    Intrare

    Meteo pe oră la Vlorë

    Astăzi, 26 Martie, Marţi

    Timp Temperatura Precipitaţii Vânt Presiune Umiditate
    00:00 +13°C° 0 mm 5 m/s 757 mmHg 76%
    01:00 +13°C° 0 mm 5 m/s 757 mmHg 77%
    02:00 +13°C° 0 mm 5 m/s 756 mmHg 77%
    03:00 +13°C° 0 mm 5 m/s 756 mmHg 78%
    04:00 +13°C° 0 mm 6 m/s 756 mmHg 79%
    05:00 +13°C° 0 mm 5 m/s 756 mmHg 78%
    06:00 +14°C° 0 mm 5 m/s 757 mmHg 78%
    07:00 +14°C° 0 mm 5 m/s 757 mmHg 77%
    08:00 +15°C° 0 mm 4 m/s 757 mmHg 71%
    09:00 +17°C° 0 mm 4 m/s 757 mmHg 64%
    10:00 +19°C° 0 mm 3 m/s 757 mmHg 58%
    11:00 +19°C° 0 mm 3 m/s 757 mmHg 59%
    12:00 +19°C° 0 mm 3 m/s 757 mmHg 61%
    13:00 +19°C° 0 mm 2 m/s 757 mmHg 62%
    14:00 +19°C° 0.1 mm 2 m/s 757 mmHg 67%
    15:00 +18°C° 0.1 mm 2 m/s 757 mmHg 72%
    16:00 +18°C° 0.1 mm 2 m/s 757 mmHg 77%
    17:00 +17°C° 0.1 mm 3 m/s 758 mmHg 80%
    18:00 +16°C° 0.1 mm 3 m/s 759 mmHg 82%
    19:00 +14°C° 0.1 mm 3 m/s 759 mmHg 85%
    20:00 +14°C° 0.1 mm 3 m/s 760 mmHg 85%
    21:00 +14°C° 0.1 mm 3 m/s 760 mmHg 85%
    22:00 +14°C° 0.1 mm 2 m/s 761 mmHg 85%
    23:00 +14°C° 0 mm 2 m/s 761 mmHg 85%

    Mâine, 27 Martie, Miercuri

    Timp Temperatura Precipitaţii Vânt Presiune Umiditate
    00:00 +14°C° 0 mm 2 m/s 761 mmHg 86%
    01:00 +14°C° 0 mm 1 m/s 762 mmHg 86%
    02:00 +14°C° 0.2 mm 2 m/s 762 mmHg 86%
    03:00 +14°C° 0.2 mm 2 m/s 762 mmHg 87%
    04:00 +12°C° 0.2 mm 3 m/s 762 mmHg 88%
    05:00 +13°C° 0.4 mm 3 m/s 762 mmHg 85%
    06:00 +13°C° 0.4 mm 4 m/s 762 mmHg 83%
    07:00 +13°C° 0.4 mm 4 m/s 762 mmHg 80%
    08:00 +14°C° 0.2 mm 4 m/s 763 mmHg 72%
    09:00 +17°C° 0.2 mm 3 m/s 763 mmHg 64%
    10:00 +18°C° 0.2 mm 3 m/s 763 mmHg 57%
    11:00 +18°C° 0.5 mm 4 m/s 763 mmHg 60%
    12:00 +18°C° 0.5 mm 4 m/s 763 mmHg 64%
    13:00 +17°C° 0.5 mm 5 m/s 763 mmHg 68%
    14:00 +16°C° 1 mm 5 m/s 763 mmHg 76%
    15:00 +15°C° 1 mm 4 m/s 763 mmHg 83%
    16:00 +14°C° 1 mm 4 m/s 763 mmHg 91%
    17:00 +13°C° 1.3 mm 4 m/s 763 mmHg 92%
    18:00 +13°C° 1.3 mm 4 m/s 763 mmHg 93%
    19:00 +12°C° 1.3 mm 4 m/s 763 mmHg 95%
    20:00 +12°C° 0.4 mm 4 m/s 763 mmHg 94%
    21:00 +13°C° 0.4 mm 4 m/s 764 mmHg 94%
    22:00 +13°C° 0.4 mm 3 m/s 764 mmHg 93%
    23:00 +13°C° 0.3 mm 2 m/s 764 mmHg 92%

    Poimâine, 28 Martie, Joi

    Timp Temperatura Precipitaţii Vânt Presiune Umiditate
    00:00 +13°C° 0.3 mm 2 m/s 764 mmHg 92%
    01:00 +13°C° 0.3 mm 1 m/s 764 mmHg 91%
    02:00 +13°C° 0.1 mm 1 m/s 764 mmHg 90%
    03:00 +13°C° 0.1 mm 2 m/s 764 mmHg 89%
    04:00 +11°C° 0.1 mm 3 m/s 764 mmHg 88%
    05:00 +11°C° 0 mm 3 m/s 764 mmHg 85%
    06:00 +11°C° 0 mm 4 m/s 764 mmHg 82%
    07:00 +10°C° 0 mm 5 m/s 764 mmHg 79%
    08:00 +12°C° 0 mm 5 m/s 765 mmHg 74%
    09:00 +13°C° 0 mm 5 m/s 765 mmHg 69%
    10:00 +14°C° 0 mm 5 m/s 765 mmHg 64%
    11:00 +14°C° 0 mm 4 m/s 765 mmHg 61%
    12:00 +15°C° 0 mm 4 m/s 765 mmHg 58%
    13:00 +17°C° 0 mm 4 m/s 765 mmHg 56%
    14:00 +17°C° 0 mm 4 m/s 765 mmHg 57%
    15:00 +16°C° 0 mm 5 m/s 765 mmHg 57%
    16:00 +16°C° 0 mm 6 m/s 764 mmHg 58%
    17:00 +15°C° 0 mm 6 m/s 765 mmHg 62%
    18:00 +14°C° 0 mm 6 m/s 765 mmHg 66%
    19:00 +13°C° 0 mm 6 m/s 765 mmHg 71%
    20:00 +12°C° 0 mm 5 m/s 766 mmHg 72%
    21:00 +12°C° 0 mm 5 m/s 766 mmHg 73%
    22:00 +11°C° 0 mm 4 m/s 766 mmHg 74%
    23:00 +11°C° 0 mm 4 m/s 766 mmHg 75%

    29 Martie, Vineri

    Timp Temperatura Precipitaţii Vânt Presiune Umiditate
    00:00 +10°C° 0 mm 4 m/s 767 mmHg 76%
    01:00 +10°C° 0 mm 3 m/s 767 mmHg 77%
    02:00 +10°C° 0 mm 3 m/s 767 mmHg 78%
    03:00 +9°C° 0 mm 3 m/s 767 mmHg 78%
    04:00 +9°C° 0 mm 3 m/s 767 mmHg 78%
    05:00 +10°C° 0 mm 3 m/s 767 mmHg 77%
    06:00 +10°C° 0 mm 4 m/s 767 mmHg 76%
    07:00 +11°C° 0 mm 4 m/s 768 mmHg 74%
    08:00 +12°C° 0 mm 3 m/s 768 mmHg 68%
    09:00 +13°C° 0 mm 3 m/s 768 mmHg 61%
    10:00 +16°C° 0 mm 3 m/s 768 mmHg 54%
    11:00 +16°C° 0 mm 3 m/s 768 mmHg 52%
    12:00 +17°C° 0 mm 4 m/s 768 mmHg 50%
    13:00 +17°C° 0 mm 4 m/s 767 mmHg 48%
    14:00 +16°C° 0 mm 5 m/s 767 mmHg 46%
    15:00 +16°C° 0 mm 7 m/s 767 mmHg 45%
    16:00 +17°C° 0 mm 8 m/s 767 mmHg 43%
    17:00 +15°C° 0 mm 9 m/s 767 mmHg 51%
    18:00 +13°C° 0 mm 10 m/s 767 mmHg 58%
    19:00 +11°C° 0 mm 10 m/s 767 mmHg 65%
    20:00 +11°C° 0 mm 10 m/s 767 mmHg 66%
    21:00 +11°C° 0 mm 9 m/s 767 mmHg 66%
    22:00 +10°C° 0 mm 8 m/s 767 mmHg 66%
    23:00 +10°C° 0 mm 7 m/s 767 mmHg 65%

    30 Martie, Sâmbătă

    Timp Temperatura Precipitaţii Vânt Presiune Umiditate
    00:00 +10°C° 0 mm 6 m/s 767 mmHg 63%
    01:00 +9°C° 0 mm 6 m/s 767 mmHg 62%
    02:00 +9°C° 0 mm 6 m/s 767 mmHg 63%
    03:00 +9°C° 0 mm 6 m/s 767 mmHg 65%
    04:00 +8°C° 0 mm 6 m/s 767 mmHg 66%
    05:00 +9°C° 0 mm 5 m/s 767 mmHg 67%
    06:00 +9°C° 0 mm 5 m/s 768 mmHg 67%
    07:00 +10°C° 0 mm 5 m/s 768 mmHg 68%
    08:00 +12°C° 0 mm 4 m/s 767 mmHg 61%
    09:00 +14°C° 0 mm 4 m/s 767 mmHg 54%
    10:00 +15°C° 0 mm 4 m/s 767 mmHg 47%
    11:00 +17°C° 0 mm 4 m/s 767 mmHg 45%
    12:00 +17°C° 0 mm 5 m/s 766 mmHg 44%
    13:00 +19°C° 0 mm 6 m/s 766 mmHg 42%
    14:00 +17°C° 0 mm 7 m/s 765 mmHg 48%
    15:00 +17°C° 0 mm 9 m/s 765 mmHg 53%
    16:00 +17°C° 0 mm 10 m/s 764 mmHg 58%
    17:00 +15°C° 0 mm 9 m/s 764 mmHg 66%
    18:00 +13°C° 0 mm 8 m/s 764 mmHg 74%
    19:00 +11°C° 0 mm 7 m/s 764 mmHg 82%
    20:00 +11°C° 0 mm 7 m/s 764 mmHg 82%
    21:00 +11°C° 0 mm 7 m/s 764 mmHg 81%
    22:00 +10°C° 0 mm 7 m/s 764 mmHg 81%
    23:00 +10°C° 0 mm 7 m/s 764 mmHg 79%

    31 Martie, Duminică

    Timp Temperatura Precipitaţii Vânt Presiune Umiditate
    00:00 +10°C° 0 mm 6 m/s 763 mmHg 77%
    01:00 +10°C° 0 mm 6 m/s 763 mmHg 74%
    02:00 +10°C° 0 mm 6 m/s 763 mmHg 73%
    03:00 +10°C° 0 mm 6 m/s 762 mmHg 71%
    04:00 +10°C° 0 mm 5 m/s 762 mmHg 69%
    05:00 +10°C° 0 mm 5 m/s 762 mmHg 67%
    06:00 +12°C° 0 mm 5 m/s 762 mmHg 65%
    07:00 +12°C° 0 mm 5 m/s 762 mmHg 63%
    08:00 +14°C° 0 mm 5 m/s 762 mmHg 58%
    09:00 +15°C° 0 mm 5 m/s 762 mmHg 53%
    10:00 +17°C° 0 mm 5 m/s 762 mmHg 48%
    11:00 +17°C° 0 mm 5 m/s 761 mmHg 50%
    12:00 +19°C° 0 mm 6 m/s 761 mmHg 51%
    13:00 +18°C° 0 mm 7 m/s 760 mmHg 52%
    14:00 +18°C° 0 mm 7 m/s 760 mmHg 56%
    15:00 +17°C° 0 mm 7 m/s 760 mmHg 61%
    16:00 +17°C° 0 mm 7 m/s 759 mmHg 65%
    17:00 +15°C° 0 mm 7 m/s 759 mmHg 71%
    18:00 +14°C° 0 mm 6 m/s 760 mmHg 78%
    19:00 +13°C° 0 mm 6 m/s 760 mmHg 85%
    20:00 +12°C° 0 mm 5 m/s 760 mmHg 85%
    21:00 +12°C° 0 mm 5 m/s 760 mmHg 84%
    22:00 +12°C° 0 mm 5 m/s 761 mmHg 84%
    23:00 +12°C° 0 mm 4 m/s 761 mmHg 82%
    Arată mai mult